Location: 10033 Water Well
(34.0865°N, 106.8959°W)
Time: 18:52:45
(UTC+00:00)

SPOT 1/Viking Rocket - Pass Details

Date: 13 January 2026
Orbit: 772 x 790 km, 98.2° (Epoch: 10 February)

Event Time Altitude Azimuth Distance (km) Brightness Sun altitude
Rises 01:15:21 0° 163° (SSE) 3,260 6.8 -11.7°
Reaches altitude 10° 01:17:39 10° 162° (SSE) 2,333 6.0 -12.2°
Maximum altitude 01:22:48 79° 77° (ENE) 800 3.5 -13.2°
Drops below altitude 10° 01:27:57 10° 351° (N) 2,335 5.9 -14.2°
Sets 01:30:16 0° 350° (N) 3,264 6.7 -14.7°
